Location: Wien
(48.2082°N, 16.3738°E)
Time: 09:34:28
(UTC+02:00)

UNISAT 6 - Pass Details

Date: 30 April 2024
Orbit: 593 x 668 km, 97.7° (Epoch: 20 May)

Event Time Altitude Azimuth Distance (km) Brightness Sun altitude
Rises 03:36:15 0° 128° (SE) 2,887 ? -17.1°
Reaches altitude 10° 03:38:50 10° 113° (ESE) 1,973 ? -16.8°
Maximum altitude 03:42:04 22° 64° (ENE) 1,361 ? -16.4°
Drops below altitude 10° 03:45:18 10° 14° (NNE) 1,956 ? -16.1°
Sets 03:47:51 0° 359° (N) 2,856 ? -15.8°
